Weather History for Southern Pines, NC

Change the Weather History Date:

Tuesday, November 8, 2011

  Actual Average Record
Temperature  
Mean Temperature 53 °F -  
Max Temperature 69 °F 61 °F 78 °F (2000)
Min Temperature 37 °F 40 °F 26 °F (2007)
Degree Days  
Heating Degree Days 12    
Growing Degree Days 3 (Base 50)    
Moisture  
Dew Point 44 °F    
Average Humidity 74    
Maximum Humidity 100    
Minimum Humidity 46    
Precipitation  
Precipitation 0.00 in - - ()
Sea Level Pressure  
Sea Level Pressure 30.24 in    
Wind  
Wind Speed 1 mph (NE)    
Max Wind Speed 8 mph    
Max Gust Speed -    
Visibility 9 miles    
Events      
Averages and records for this station are not official NWS values.
T = Trace of Precipitation, MM = Missing Value Source: NWS Daily Summary

Daily Weather History Graph

Daily Weather History Graph

Search for Another Location

Airport:

Trip Planner

Search our weather history database for the weather conditions in past years. The results will help you decide how hot, cold, wet, or windy it might be!

Date:

Astronomy

Nov. 08, 2011 Rise Set
Actual Time 6:45 AM EST 5:16 PM EST
Civil Twilight 6:18 AM EST 5:43 PM EST
Nautical Twilight 5:48 AM EST 6:13 PM EST
Astronomical Twilight 5:18 AM EST 6:43 PM EST
Moon 3:54 PM EST (11/8) 4:45 AM EST (11/8)
Length of Visible Light 11h 24m
Length of Day
10h 31m
Waxing Gibbous, 96% of the Moon is Illuminated
Nov 8
Waxing Gibbous
Nov 10
Full
Nov 18
Last Quarter
Nov 25
New
Dec 2
First Quarter

Hourly Weather History & Observations

Time (EST) Temp. Dew Point Humidity Pressure Visibility Wind Dir Wind Speed Gust Speed Precip Events Conditions
12:15 AM 42.8 °F 39.2 °F 87% 30.30 in 7.0 mi Calm Calm - N/A   Clear
12:35 AM 42.8 °F 39.2 °F 87% 30.29 in 1.8 mi Calm Calm - N/A   Clear
12:55 AM 42.8 °F 37.4 °F 81% 30.29 in 10.0 mi Calm Calm - N/A   Clear
1:15 AM 41.0 °F 37.4 °F 87% 30.28 in 9.0 mi Calm Calm - N/A   Clear
1:35 AM 42.8 °F 39.2 °F 87% 30.27 in 10.0 mi Calm Calm - N/A   Clear
1:55 AM 42.8 °F 39.2 °F 87% 30.27 in 10.0 mi Calm Calm - N/A   Clear
2:15 AM 41.0 °F 37.4 °F 87% 30.27 in 1.5 mi Calm Calm - N/A   Clear
2:35 AM 41.0 °F 37.4 °F 87% 30.27 in 7.0 mi Calm Calm - N/A   Clear
2:55 AM 41.0 °F 37.4 °F 87% 30.27 in 5.0 mi Calm Calm - N/A   Clear
3:15 AM 39.2 °F 37.4 °F 93% 30.27 in 8.0 mi Calm Calm - N/A   Clear
3:35 AM 41.0 °F 37.4 °F 87% 30.27 in 10.0 mi Calm Calm - N/A   Clear
4:15 AM 41.0 °F 37.4 °F 87% 30.27 in 10.0 mi Calm Calm - N/A   Clear
4:35 AM 39.2 °F 35.6 °F 87% 30.27 in 1.8 mi Calm Calm - N/A   Clear
4:55 AM 39.2 °F 35.6 °F 87% 30.27 in 10.0 mi Calm Calm - N/A   Clear
5:15 AM 39.2 °F 35.6 °F 87% 30.27 in 1.5 mi Calm Calm - N/A   Clear
5:35 AM 37.4 °F 35.6 °F 93% 30.27 in 3.0 mi Calm Calm - N/A   Clear
5:55 AM 39.2 °F 35.6 °F 87% 30.27 in 7.0 mi Calm Calm - N/A   Clear
6:35 AM 39.2 °F 35.6 °F 87% 30.27 in 8.0 mi Calm Calm - N/A   Clear
7:15 AM 37.4 °F 35.6 °F 93% 30.29 in 5.0 mi Calm Calm - N/A   Clear
7:35 AM 41.0 °F 41.0 °F 100% 30.29 in 8.0 mi Calm Calm - N/A   Clear
7:55 AM 46.4 °F 44.6 °F 93% 30.30 in 10.0 mi Calm Calm - N/A   Partly Cloudy
8:15 AM 48.2 °F 44.6 °F 87% 30.30 in 10.0 mi Calm Calm - N/A   Clear
8:35 AM 50.0 °F 46.4 °F 87% 30.30 in 10.0 mi Calm Calm - N/A   Clear
9:15 AM 53.6 °F 48.2 °F 82% 30.30 in 10.0 mi Calm Calm - N/A   Clear
9:35 AM 57.2 °F 48.2 °F 72% 30.29 in 10.0 mi Calm Calm - N/A   Clear
9:55 AM 59.0 °F 48.2 °F 67% 30.30 in 10.0 mi Calm Calm - N/A   Clear
10:15 AM 60.8 °F 50.0 °F 68% 30.29 in 10.0 mi Calm Calm - N/A   Clear
10:35 AM 62.6 °F 50.0 °F 63% 30.29 in 10.0 mi Calm Calm - N/A   Clear
10:55 AM 64.4 °F 51.8 °F 64% 30.28 in 10.0 mi East 8.1 mph - N/A   Clear
11:15 AM 64.4 °F 51.8 °F 64% 30.28 in 10.0 mi NNE 4.6 mph - N/A   Clear
11:35 AM 66.2 °F 50.0 °F 56% 30.26 in 10.0 mi NE 8.1 mph - N/A   Clear
11:55 AM 66.2 °F 48.2 °F 52% 30.25 in 10.0 mi ENE 3.5 mph - N/A   Clear
12:15 PM 66.2 °F 48.2 °F 52% 30.24 in 10.0 mi Calm Calm - N/A   Clear
12:35 PM 68.0 °F 48.2 °F 49% 30.23 in 10.0 mi Calm Calm - N/A   Clear
12:55 PM 68.0 °F 48.2 °F 49% 30.22 in 10.0 mi Calm Calm - N/A   Clear
1:15 PM 68.0 °F 48.2 °F 49% 30.22 in 10.0 mi NNE 5.8 mph - N/A   Clear
1:35 PM 68.0 °F 48.2 °F 49% 30.21 in 10.0 mi Calm Calm - N/A   Clear
1:55 PM 69.8 °F 48.2 °F 46% 30.20 in 10.0 mi NNW 3.5 mph - N/A   Clear
2:15 PM 69.8 °F 48.2 °F 46% 30.20 in 10.0 mi NE 5.8 mph - N/A   Clear
2:35 PM 69.8 °F 48.2 °F 46% 30.19 in 10.0 mi Calm Calm - N/A   Clear
2:55 PM 69.8 °F 48.2 °F 46% 30.19 in 10.0 mi Calm Calm - N/A   Clear
3:15 PM 69.8 °F 48.2 °F 46% 30.19 in 10.0 mi Calm Calm - N/A   Clear
3:35 PM 69.8 °F 48.2 °F 46% 30.19 in 10.0 mi ENE 6.9 mph - N/A   Clear
3:55 PM 68.0 °F 46.4 °F 46% 30.19 in 10.0 mi Calm Calm - N/A   Clear
4:15 PM 68.0 °F 48.2 °F 49% 30.19 in 10.0 mi Calm Calm - N/A   Clear
4:35 PM 66.2 °F 48.2 °F 52% 30.19 in 10.0 mi East 3.5 mph - N/A   Clear
5:15 PM 62.6 °F 48.2 °F 59% 30.19 in 10.0 mi Calm Calm - N/A   Clear
5:35 PM 57.2 °F 48.2 °F 72% 30.19 in 10.0 mi Calm Calm - N/A   Clear
5:55 PM 55.4 °F 46.4 °F 72% 30.19 in 10.0 mi Calm Calm - N/A   Clear
6:15 PM 55.4 °F 46.4 °F 72% 30.19 in 10.0 mi Calm Calm - N/A   Clear
6:35 PM 53.6 °F 46.4 °F 77% 30.19 in 10.0 mi Calm Calm - N/A   Clear
6:55 PM 53.6 °F 46.4 °F 77% 30.19 in 10.0 mi Calm Calm - N/A   Clear
7:15 PM 51.8 °F 46.4 °F 82% 30.19 in 10.0 mi Calm Calm - N/A   Clear
7:35 PM 50.0 °F 44.6 °F 82% 30.20 in 10.0 mi Calm Calm - N/A   Clear
7:55 PM 48.2 °F 42.8 °F 82% 30.20 in 10.0 mi Calm Calm - N/A   Clear
8:15 PM 48.2 °F 44.6 °F 87% 30.20 in 10.0 mi Calm Calm - N/A   Clear
8:35 PM 46.4 °F 42.8 °F 87% 30.20 in 10.0 mi Calm Calm - N/A   Clear
8:55 PM 46.4 °F 42.8 °F 87% 30.21 in 10.0 mi Calm Calm - N/A   Clear
9:15 PM 46.4 °F 42.8 °F 87% 30.21 in 10.0 mi Calm Calm - N/A   Clear
9:35 PM 46.4 °F 42.8 °F 87% 30.21 in 5.0 mi Calm Calm - N/A   Clear
9:55 PM 44.6 °F 42.8 °F 93% 30.21 in 2.0 mi Calm Calm - N/A   Scattered Clouds
10:15 PM 46.4 °F 42.8 °F 87% 30.21 in 0.8 mi Calm Calm - N/A   Unknown
10:35 PM 44.6 °F 39.2 °F 81% 30.20 in 1.5 mi Calm Calm - N/A   Scattered Clouds
10:55 PM 42.8 °F 39.2 °F 87% 30.20 in 0.8 mi Calm Calm - N/A   Unknown
11:15 PM 42.8 °F 39.2 °F 87% 30.19 in 4.0 mi Calm Calm - N/A   Clear
11:35 PM 42.8 °F 37.4 °F 81% 30.19 in 5.0 mi Calm Calm - N/A   Clear
11:55 PM 41.0 °F 37.4 °F 87% 30.18 in 0.8 mi Calm Calm - N/A   Unknown